{"data":{"norad_id":58503,"epoch":"2026-06-06T08:47:21.318144Z","epoch_age_seconds":9414852,"freshness":"OLD","line1":"1 58503U 23189B   26157.36621896  .04635759  24647-5  11779-2 0  9990","line2":"2 58503  97.3625 197.5486 0011765 254.3472 105.6523 16.28725951141084","mean_motion":16.28725951,"eccentricity":0.0011765,"inclination_deg":97.3625,"raan_deg":197.5486,"arg_perigee_deg":254.3472,"mean_anomaly_deg":105.6523,"bstar":0.0011779,"rev_number":14108,"period_min":88.412663844146,"perigee_km":188.23146317903,"apogee_km":203.70032729152,"semimajor_km":6574.1028952353,"source":"CELESTRAK","updated_at":"2026-06-09T09:00:26.317525Z"}}